When you browse on this site, cookies collect data to enhance your experience and personalize the content and advertising you see.
Visit our Privacy Policy to learn more. By continuing to use the site, you agree to this use of cookies and data.
  • In Latvia
  • List of Countries
  • For 7 days
  • Water Temperature
  • Satellite Maps
  • Weather Map
  • Weather Widgets
  • user-avatar
    Login

    Hourly Weather Polanowice

    Today, 16 December, Sunday

    Time Temperature Precipitation Wind Pressure Humidity
    00:00 -3°C° 0 mm 4 mps 761 mmHg 88%
    01:00 -3°C° 0 mm 4 mps 760 mmHg 87%
    02:00 -3°C° 0.1 mm 4 mps 760 mmHg 87%
    03:00 -3°C° 0.1 mm 4 mps 759 mmHg 86%
    04:00 -3°C° 0.1 mm 4 mps 759 mmHg 85%
    05:00 -3°C° 0.1 mm 4 mps 758 mmHg 85%
    06:00 -3°C° 0.1 mm 4 mps 758 mmHg 85%
    07:00 -3°C° 0.1 mm 4 mps 758 mmHg 85%
    08:00 -3°C° 0.1 mm 4 mps 758 mmHg 84%
    09:00 -3°C° 0.1 mm 4 mps 757 mmHg 83%
    10:00 -3°C° 0.1 mm 4 mps 757 mmHg 83%
    11:00 -1°C° 0 mm 3 mps 757 mmHg 82%
    12:00 -1°C° 0 mm 3 mps 756 mmHg 81%
    13:00 -1°C° 0 mm 3 mps 756 mmHg 81%
    14:00 -1°C° 0 mm 2 mps 756 mmHg 83%
    15:00 -1°C° 0 mm 2 mps 756 mmHg 85%
    16:00 -2°C° 0 mm 2 mps 756 mmHg 87%
    17:00 -2°C° 0 mm 2 mps 756 mmHg 88%
    18:00 -2°C° 0 mm 2 mps 756 mmHg 89%
    19:00 -3°C° 0 mm 2 mps 756 mmHg 90%
    20:00 -3°C° 0 mm 2 mps 756 mmHg 90%
    21:00 -3°C° 0 mm 2 mps 756 mmHg 89%
    22:00 -3°C° 0 mm 2 mps 756 mmHg 88%
    23:00 -3°C° 0 mm 2 mps 756 mmHg 88%

    Tomorrow, 17 December, Monday

    Time Temperature Precipitation Wind Pressure Humidity
    00:00 -3°C° 0 mm 2 mps 756 mmHg 87%
    01:00 -3°C° 0 mm 2 mps 756 mmHg 87%
    02:00 -3°C° 0 mm 2 mps 756 mmHg 86%
    03:00 -3°C° 0 mm 2 mps 756 mmHg 85%
    04:00 -3°C° 0 mm 2 mps 756 mmHg 84%
    05:00 -3°C° 0 mm 2 mps 756 mmHg 84%
    06:00 -3°C° 0 mm 2 mps 756 mmHg 84%
    07:00 -3°C° 0 mm 2 mps 756 mmHg 84%
    08:00 -2°C° 0 mm 2 mps 757 mmHg 83%
    09:00 -2°C° 0 mm 2 mps 757 mmHg 81%
    10:00 -2°C° 0 mm 2 mps 757 mmHg 80%
    11:00 -1°C° 0.1 mm 2 mps 757 mmHg 81%
    12:00 -1°C° 0.1 mm 2 mps 758 mmHg 82%
    13:00 -1°C° 0.1 mm 2 mps 758 mmHg 83%
    14:00 -1°C° 0 mm 2 mps 758 mmHg 86%
    15:00 -1°C° 0 mm 2 mps 759 mmHg 89%
    16:00 -1°C° 0 mm 2 mps 759 mmHg 92%
    17:00 -1°C° 0 mm 2 mps 759 mmHg 92%
    18:00 -1°C° 0 mm 2 mps 760 mmHg 93%
    19:00 -1°C° 0 mm 2 mps 760 mmHg 93%
    20:00 -1°C° 0 mm 2 mps 761 mmHg 94%
    21:00 -2°C° 0 mm 2 mps 761 mmHg 94%
    22:00 -2°C° 0 mm 2 mps 761 mmHg 94%
    23:00 -2°C° 0 mm 2 mps 762 mmHg 95%

    Day after tomorrow, 18 December, Tuesday

    Time Temperature Precipitation Wind Pressure Humidity
    00:00 -2°C° 0 mm 2 mps 762 mmHg 95%
    01:00 +1°C° 0 mm 1 mps 762 mmHg 95%
    02:00 +1°C° 0 mm 1 mps 763 mmHg 95%
    03:00 +1°C° 0 mm 1 mps 763 mmHg 95%
    04:00 +1°C° 0 mm 1 mps 763 mmHg 94%
    05:00 +1°C° 0 mm 1 mps 763 mmHg 94%
    06:00 0°C° 0 mm 0 mps 763 mmHg 94%
    07:00 0°C° 0 mm 0 mps 764 mmHg 94%
    08:00 +1°C° 0 mm 1 mps 764 mmHg 93%
    09:00 +1°C° 0 mm 1 mps 764 mmHg 92%
    10:00 +2°C° 0 mm 1 mps 764 mmHg 91%
    11:00 +2°C° 0 mm 1 mps 764 mmHg 91%
    12:00 +2°C° 0 mm 1 mps 764 mmHg 90%
    13:00 +2°C° 0 mm 1 mps 764 mmHg 90%
    14:00 +2°C° 0 mm 1 mps 764 mmHg 91%
    15:00 +2°C° 0 mm 1 mps 765 mmHg 92%
    16:00 +1°C° 0 mm 1 mps 765 mmHg 93%
    17:00 +1°C° 0 mm 1 mps 765 mmHg 94%
    18:00 -1°C° 0 mm 2 mps 765 mmHg 94%
    19:00 -2°C° 0 mm 2 mps 765 mmHg 94%
    20:00 -2°C° 0 mm 2 mps 765 mmHg 94%
    21:00 -2°C° 0 mm 2 mps 765 mmHg 94%
    22:00 -2°C° 0 mm 2 mps 765 mmHg 94%
    23:00 -2°C° 0 mm 2 mps 765 mmHg 94%

    19 December, Wednesday

    Time Temperature Precipitation Wind Pressure Humidity
    00:00 -2°C° 0 mm 2 mps 765 mmHg 94%
    01:00 -2°C° 0 mm 2 mps 764 mmHg 94%
    02:00 -2°C° 0 mm 2 mps 764 mmHg 94%
    03:00 -2°C° 0 mm 3 mps 764 mmHg 94%
    04:00 -2°C° 0 mm 3 mps 764 mmHg 94%
    05:00 -2°C° 0 mm 3 mps 764 mmHg 94%
    06:00 -4°C° 0 mm 3 mps 764 mmHg 93%
    07:00 -4°C° 0 mm 4 mps 764 mmHg 93%
    08:00 -3°C° 0 mm 4 mps 764 mmHg 91%
    09:00 -3°C° 0 mm 4 mps 763 mmHg 88%
    10:00 -3°C° 0 mm 4 mps 763 mmHg 86%
    11:00 -2°C° 0 mm 4 mps 763 mmHg 84%
    12:00 -2°C° 0 mm 4 mps 763 mmHg 82%
    13:00 -2°C° 0 mm 4 mps 763 mmHg 80%
    14:00 -2°C° 0 mm 5 mps 762 mmHg 82%
    15:00 -4°C° 0 mm 5 mps 762 mmHg 84%
    16:00 -4°C° 0 mm 5 mps 762 mmHg 87%
    17:00 -4°C° 0 mm 5 mps 762 mmHg 87%
    18:00 -4°C° 0 mm 5 mps 762 mmHg 87%
    19:00 -4°C° 0 mm 5 mps 761 mmHg 88%
    20:00 -5°C° 0 mm 5 mps 761 mmHg 87%
    21:00 -5°C° 0 mm 5 mps 761 mmHg 87%
    22:00 -5°C° 0 mm 5 mps 761 mmHg 86%
    23:00 -5°C° 0 mm 5 mps 761 mmHg 86%

    20 December, Thursday

    Time Temperature Precipitation Wind Pressure Humidity
    00:00 -5°C° 0 mm 5 mps 761 mmHg 86%
    01:00 -5°C° 0 mm 5 mps 760 mmHg 86%
    02:00 -5°C° 0 mm 5 mps 760 mmHg 86%
    03:00 -5°C° 0 mm 5 mps 760 mmHg 86%
    04:00 -5°C° 0 mm 5 mps 760 mmHg 86%
    05:00 -5°C° 0 mm 5 mps 760 mmHg 86%
    06:00 -5°C° 0 mm 5 mps 760 mmHg 86%
    07:00 -5°C° 0 mm 5 mps 760 mmHg 86%
    08:00 -5°C° 0 mm 5 mps 760 mmHg 84%
    09:00 -4°C° 0 mm 5 mps 760 mmHg 82%
    10:00 -4°C° 0 mm 5 mps 760 mmHg 81%
    11:00 -3°C° 0 mm 4 mps 760 mmHg 79%
    12:00 -2°C° 0 mm 4 mps 759 mmHg 78%
    13:00 -2°C° 0 mm 4 mps 759 mmHg 77%
    14:00 -2°C° 0 mm 4 mps 759 mmHg 78%
    15:00 -2°C° 0 mm 4 mps 759 mmHg 79%
    16:00 -1°C° 0 mm 3 mps 759 mmHg 81%
    17:00 -1°C° 0.1 mm 3 mps 759 mmHg 82%
    18:00 -1°C° 0.1 mm 3 mps 759 mmHg 83%
    19:00 -2°C° 0.1 mm 3 mps 759 mmHg 85%
    20:00 -2°C° 0 mm 3 mps 759 mmHg 85%
    21:00 -2°C° 0 mm 3 mps 759 mmHg 85%
    22:00 -2°C° 0 mm 3 mps 759 mmHg 85%
    23:00 -2°C° 0 mm 3 mps 760 mmHg 85%

    21 December, Friday

    Time Temperature Precipitation Wind Pressure Humidity
    00:00 -2°C° 0 mm 3 mps 760 mmHg 86%
    01:00 -2°C° 0 mm 3 mps 760 mmHg 86%
    02:00 -1°C° 0 mm 3 mps 760 mmHg 87%
    03:00 -1°C° 0 mm 3 mps 760 mmHg 88%
    04:00 -1°C° 0 mm 3 mps 760 mmHg 89%
    05:00 -1°C° 0 mm 3 mps 760 mmHg 91%
    06:00 -1°C° 0 mm 3 mps 760 mmHg 92%
    07:00 -1°C° 0 mm 3 mps 761 mmHg 94%
    08:00 0°C° 0 mm 3 mps 761 mmHg 95%
    09:00 0°C° 0 mm 3 mps 761 mmHg 95%
    10:00 0°C° 0 mm 3 mps 761 mmHg 96%
    11:00 0°C° 0 mm 3 mps 761 mmHg 96%
    12:00 +1°C° 0 mm 3 mps 761 mmHg 96%
    13:00 +1°C° 0 mm 3 mps 761 mmHg 96%
    14:00 +1°C° 0 mm 3 mps 761 mmHg 96%
    15:00 0°C° 0 mm 3 mps 761 mmHg 96%
    16:00 0°C° 0 mm 3 mps 761 mmHg 96%
    17:00 0°C° 0 mm 3 mps 760 mmHg 95%
    18:00 -1°C° 0 mm 4 mps 760 mmHg 94%
    19:00 -1°C° 0 mm 4 mps 759 mmHg 92%
    20:00 -1°C° 0 mm 5 mps 759 mmHg 91%
    21:00 -1°C° 0 mm 5 mps 758 mmHg 89%
    22:00 -1°C° 0 mm 5 mps 758 mmHg 88%
    23:00 -2°C° 0 mm 6 mps 757 mmHg 86%
    Show more